Weather History for Wilmington, OH

Change the Weather History Date:

Tuesday, April 8, 2014

  Actual Average (KDAY) Record (KDAY)
Temperature  
Mean Temperature 50 °F 49 °F  
Max Temperature 60 °F 59 °F 83 °F (2001)
Min Temperature 42 °F 39 °F 15 °F (1972)
Degree Days  
Heating Degree Days 14 16  
Month to date heating degree days 140  
Since 1 July heating degree days 5179  
Cooling Degree Days 0 0  
Month to date cooling degree days 0  
Year to date cooling degree days 0  
Moisture  
Dew Point 40 °F    
Average Humidity 76    
Maximum Humidity 97    
Minimum Humidity 37    
Precipitation  
Precipitation 0.02 in 0.13 in 0.95 in (1921)
Month to date precipitation 1.02  
Year to date precipitation 9.31  
Snow  
Snow 0.00 in 0.00 in 4.70 in (1974)
Month to date snowfall 0.3  
Since 1 July snowfall 23.0  
Snow Depth -    
Sea Level Pressure  
Sea Level Pressure 29.69 in    
Wind  
Wind Speed 15 mph (West)    
Max Wind Speed 22 mph    
Max Gust Speed 38 mph    
Visibility 9 miles    
Events Rain    
T = Trace of Precipitation, MM = Missing Value Source: NWS Daily Summary

Daily Weather History Graph

Daily Weather History Graph

Search for Another Location

Airport:

Trip Planner

Search our weather history database for the weather conditions in past years. The results will help you decide how hot, cold, wet, or windy it might be!

Date:

Astronomy

Apr. 08, 2014 Rise Set
Actual Time 7:08 AM EDT 8:06 PM EDT
Civil Twilight 6:41 AM EDT 8:33 PM EDT
Nautical Twilight 6:08 AM EDT 9:06 PM EDT
Astronomical Twilight 5:35 AM EDT 9:40 PM EDT
Moon 2:00 PM EDT (4/8) 3:19 AM EDT (4/8)
Length of Visible Light 13h 52m
Length of Day
12h 57m
Waxing Gibbous, 62% of the Moon is Illuminated
Apr 8
Waxing Gibbous
Apr 15
Full
Apr 22
Last Quarter
Apr 29
New
May 6
First Quarter

Hourly Weather History & Observations

Time (EDT) Temp. Windchill Dew Point Humidity Pressure Visibility Wind Dir Wind Speed Gust Speed Precip Events Conditions
12:08 AM 46.9 °F - 45.0 °F 93% 29.44 in 8.0 mi West 21.9 mph 38.0 mph 0.00 in Rain Light Rain
12:17 AM 45.0 °F 36.9 °F 43.0 °F 93% 29.46 in 4.0 mi West 20.7 mph 29.9 mph 0.00 in Rain Light Rain
12:54 AM 44.1 °F 35.4 °F 42.1 °F 93% 29.52 in 5.0 mi West 21.9 mph 31.1 mph 0.00 in Rain Light Rain
1:54 AM 43.0 °F 34.2 °F 42.1 °F 97% 29.57 in 3.0 mi West 20.7 mph 27.6 mph 0.00 in Rain Light Rain
2:54 AM 43.0 °F 35.7 °F 41.0 °F 93% 29.60 in 4.0 mi West 15.0 mph 24.2 mph 0.01 in Rain Light Rain
3:28 AM 43.0 °F 35.4 °F 41.0 °F 93% 29.59 in 10.0 mi West 16.1 mph - 0.01 in Rain Light Rain
3:54 AM 43.0 °F 36.0 °F 39.9 °F 89% 29.64 in 7.0 mi West 13.8 mph - 0.01 in Rain Light Rain
4:54 AM 43.0 °F 36.0 °F 39.9 °F 89% 29.67 in 10.0 mi West 13.8 mph - 0.00 in Rain Light Rain
5:09 AM 43.0 °F 36.8 °F 39.9 °F 89% 29.64 in 10.0 mi West 11.5 mph - 0.00 in   Overcast
5:17 AM 43.0 °F 36.8 °F 39.9 °F 89% 29.65 in 10.0 mi West 11.5 mph - 0.00 in   Overcast
5:28 AM 43.0 °F 36.4 °F 39.9 °F 89% 29.65 in 10.0 mi West 12.7 mph - 0.00 in   Overcast
5:35 AM 43.0 °F 36.8 °F 41.0 °F 93% 29.64 in 10.0 mi West 11.5 mph - 0.00 in   Overcast
5:43 AM 43.0 °F 36.8 °F 41.0 °F 93% 29.65 in 10.0 mi West 11.5 mph - 0.00 in   Overcast
5:51 AM 42.8 °F 35.8 °F 41.0 °F 93% 29.65 in 10.0 mi West 13.8 mph - 0.00 in   Overcast
5:54 AM 43.0 °F 35.7 °F 41.0 °F 93% 29.69 in 10.0 mi West 15.0 mph - 0.00 in   Overcast
6:24 AM 43.0 °F 36.0 °F 41.0 °F 93% 29.66 in 10.0 mi West 13.8 mph - N/A   Overcast
6:34 AM 43.0 °F 36.0 °F 41.0 °F 93% 29.66 in 9.0 mi West 13.8 mph - N/A   Overcast
6:54 AM 43.0 °F 36.0 °F 41.0 °F 93% 29.69 in 9.0 mi WSW 13.8 mph - N/A   Overcast
7:51 AM 42.8 °F 35.8 °F 41.0 °F 93% 29.69 in 6.0 mi WSW 13.8 mph - N/A   Overcast
7:54 AM 43.0 °F 36.0 °F 41.0 °F 93% 29.72 in 6.0 mi WSW 13.8 mph - N/A   Overcast
8:54 AM 44.1 °F 36.8 °F 39.9 °F 85% 29.74 in 7.0 mi WSW 16.1 mph - N/A   Partly Cloudy
9:54 AM 46.9 °F - 39.9 °F 77% 29.75 in 9.0 mi West 12.7 mph - N/A   Clear
10:54 AM 50.0 °F - 39.9 °F 68% 29.76 in 10.0 mi West 12.7 mph - N/A   Clear
11:54 AM 52.0 °F - 35.1 °F 53% 29.76 in 10.0 mi West 9.2 mph 19.6 mph N/A   Clear
12:54 PM 54.0 °F - 37.0 °F 53% 29.76 in 10.0 mi West 10.4 mph - N/A   Clear
1:54 PM 57.9 °F - 35.1 °F 42% 29.75 in 10.0 mi WNW 8.1 mph - N/A   Clear
2:54 PM 57.9 °F - 37.0 °F 46% 29.74 in 10.0 mi West 10.4 mph - N/A   Partly Cloudy
3:54 PM 59.0 °F - 35.1 °F 41% 29.73 in 10.0 mi West 12.7 mph 18.4 mph N/A   Partly Cloudy
4:54 PM 59.0 °F - 34.0 °F 39% 29.73 in 10.0 mi West 10.4 mph - N/A   Clear
5:54 PM 59.0 °F - 34.0 °F 39% 29.73 in 10.0 mi WNW 12.7 mph - N/A   Partly Cloudy
6:54 PM 57.9 °F - 32.0 °F 37% 29.75 in 10.0 mi NW 11.5 mph - N/A   Clear
7:54 PM 55.0 °F - 35.1 °F 47% 29.77 in 10.0 mi WNW 6.9 mph - N/A   Clear
8:54 PM 53.1 °F - 39.9 °F 61% 29.80 in 10.0 mi NNW 9.2 mph - N/A   Overcast
9:54 PM 51.1 °F - 41.0 °F 68% 29.83 in 10.0 mi NNW 10.4 mph - N/A   Overcast
10:54 PM 50.0 °F - 43.0 °F 77% 29.83 in 7.0 mi NNW 6.9 mph - N/A   Mostly Cloudy
11:54 PM 50.0 °F - 42.1 °F 74% 29.84 in 8.0 mi NW 10.4 mph - N/A   Overcast